Caribou, ME

5:55 AM EDT on April 22, 2018 (GMT -0400)
Caribou Municipal

Weather History for KCAR - January, 2013

Change the Weather History Date:

Tuesday, January 22, 2013

  Actual Average Record
Temperature  
Mean Temperature -6 °F 9 °F  
Max Temperature 3 °F 19 °F 42 °F (1957)
Min Temperature -16 °F 0 °F -27 °F (1984)
Degree Days  
Heating Degree Days 71 56  
Month to date heating degree days 1143 1205  
Since 1 July heating degree days 4323 4799  
Cooling Degree Days 0 0  
Month to date cooling degree days 0 0  
Year to date cooling degree days 0 0  
Moisture  
Dew Point -16 °F    
Average Humidity 63    
Maximum Humidity 81    
Minimum Humidity 44    
Precipitation  
Precipitation T in 0.09 in 0.39 in (1958)
Month to date precipitation 1.46 1.95  
Year to date precipitation 1.46 1.95  
Snow  
Snow 0.00 in 0.90 in 5.30 in (1981)
Month to date snowfall 14.7 17.9  
Since 1 July snowfall 43.2 53.0  
Snow Depth 7.00 in    
Sea Level Pressure  
Sea Level Pressure 29.87 in    
Wind  
Wind Speed 5 mph (NNW)    
Max Wind Speed 13 mph    
Max Gust Speed 18 mph    
Visibility 10 miles    
Events      
T = Trace of Precipitation, MM = Missing Value Source: NWS Daily Summary

Daily Weather History Graph

Daily Weather History Graph

Search for Another Location

Airport or City:

Astronomy

Jan. 22, 2013 Rise Set
Actual Time 7:07 AM EST 4:20 PM EST
Civil Twilight 6:33 AM EST 4:54 PM EST
Nautical Twilight 5:56 AM EST 5:31 PM EST
Astronomical Twilight 5:20 AM EST 6:07 PM EST
Moon 12:38 PM EST 3:28 AM EST
Length of Visible Light 10h 20m
Length of Day
9h 13m
Waxing Gibbous, 82% of the Moon is Illuminated
Jan 22
Waxing Gibbous
Jan 26
Full
Feb 3
Last Quarter
Feb 10
New
Feb 17
First Quarter

Hourly Weather History & Observations

Time (EST) Temp. Windchill Dew Point Humidity Pressure Visibility Wind Dir Wind Speed Gust Speed Precip Events Conditions
12:54 AM -4.0 °F - -14.1 °F 62% 29.93 in 10.0 mi Calm Calm - N/A   Clear
1:54 AM -8.0 °F -16.9 °F -15.0 °F 71% 29.92 in 10.0 mi North 3.5 mph - N/A   Clear
2:54 AM -9.9 °F -24.9 °F -16.1 °F 74% 29.88 in 10.0 mi North 6.9 mph - N/A   Clear
3:54 AM -11.9 °F -23.8 °F -17.0 °F 78% 29.88 in 10.0 mi North 4.6 mph - N/A   Clear
4:54 AM -14.1 °F -23.9 °F -18.9 °F 79% 29.90 in 10.0 mi NW 3.5 mph - N/A   Clear
5:54 AM -11.9 °F -31.0 °F -17.0 °F 78% 29.89 in 10.0 mi NNW 10.4 mph - N/A   Clear
6:54 AM -11.9 °F -28.7 °F -18.0 °F 74% 29.91 in 10.0 mi NW 8.1 mph - N/A   Clear
7:54 AM -11.9 °F -21.5 °F -18.0 °F 74% 29.92 in 10.0 mi North 3.5 mph - N/A   Clear
8:54 AM -9.9 °F -24.9 °F -17.0 °F 71% 29.91 in 10.0 mi North 6.9 mph - N/A   Clear
9:54 AM -6.0 °F -20.1 °F -14.1 °F 68% 29.89 in 10.0 mi North 6.9 mph - N/A   Clear
10:54 AM -2.9 °F -20.8 °F -14.1 °F 59% 29.85 in 10.0 mi North 11.5 mph - N/A   Clear
11:54 AM -0.9 °F - -13.0 °F 57% 29.83 in 10.0 mi Calm Calm - N/A   Clear
12:54 PM 1.0 °F -14.0 °F -15.0 °F 47% 29.80 in 10.0 mi NNW 9.2 mph - N/A   Clear
1:54 PM 1.9 °F -9.2 °F -15.0 °F 45% 29.80 in 10.0 mi NNW 5.8 mph - N/A   Clear
2:54 PM 1.9 °F -10.6 °F -16.1 °F 43% 29.82 in 10.0 mi NW 6.9 mph - N/A   Clear
3:54 PM -0.9 °F -15.3 °F -16.1 °F 49% 29.83 in 10.0 mi NNW 8.1 mph - N/A   Clear
4:54 PM -2.0 °F -10.1 °F -15.0 °F 54% 29.85 in 10.0 mi NW 3.5 mph - N/A   Mostly Cloudy
5:54 PM -2.9 °F -11.2 °F -16.1 °F 54% 29.86 in 10.0 mi NW 3.5 mph - N/A   Clear
6:54 PM -7.1 °F - -17.0 °F 62% 29.87 in 10.0 mi Calm Calm - N/A   Clear
7:54 PM -5.1 °F -20.4 °F -18.0 °F 54% 29.88 in 10.0 mi NNW 8.1 mph - N/A   Clear
8:54 PM -9.0 °F -20.4 °F -18.9 °F 62% 29.88 in 10.0 mi NNW 4.6 mph - N/A   Clear
9:54 PM -9.0 °F -20.4 °F -18.0 °F 65% 29.87 in 10.0 mi WNW 4.6 mph - N/A   Scattered Clouds
10:54 PM -11.0 °F - -18.9 °F 68% 29.88 in 10.0 mi Calm Calm - N/A   Overcast
11:54 PM -11.9 °F - -18.9 °F 71% 29.87 in 7.0 mi Calm Calm - 0.00 in   Overcast